Weather History for KPMV - July, 2013

Change the Weather History Date:

Monday, July 15, 2013

  Actual Average (KOMA) Record (KOMA)
Temperature  
Mean Temperature 76 °F 77 °F  
Max Temperature 89 °F 88 °F 107 °F (1934)
Min Temperature 63 °F 67 °F 51 °F (1967)
Degree Days  
Heating Degree Days 0 0  
Month to date heating degree days 0  
Since 1 June heating degree days 17  
Since 1 July heating degree days 0  
Cooling Degree Days 11 12  
Month to date cooling degree days 176  
Year to date cooling degree days 488  
Since 1 June cooling degree days 406  
Growing Degree Days 26 (Base 50)    
Moisture  
Dew Point 66 °F    
Average Humidity 69    
Maximum Humidity 93    
Minimum Humidity 49    
Precipitation  
Precipitation 0.03 in 0.13 in 1.72 in (1950)
Month to date precipitation 1.86  
Year to date precipitation 17.32  
Snow  
Snow 0.00 in 0.00 in - ()
Month to date snowfall 0.0  
Since 1 July snowfall 0.0  
Snow Depth -    
Sea Level Pressure  
Sea Level Pressure 30.18 in    
Wind  
Wind Speed 4 mph (SE)    
Max Wind Speed 10 mph    
Max Gust Speed -    
Visibility 10 miles    
Events Thunderstorm    
T = Trace of Precipitation, MM = Missing Value Source: NWS Daily Summary

Daily Weather History Graph

Daily Weather History Graph

Search for Another Location

Airport or City:

Trip Planner

Search our weather history database for the weather conditions in past years. The results will help you decide how hot, cold, wet, or windy it might be!

Date:

Astronomy

Jul. 15, 2013 Rise Set
Actual Time 6:04 AM CDT 8:54 PM CDT
Civil Twilight 5:32 AM CDT 9:26 PM CDT
Nautical Twilight 4:51 AM CDT 10:07 PM CDT
Astronomical Twilight 4:04 AM CDT 10:54 PM CDT
Moon 1:29 PM CDT (7/15) 12:03 AM CDT (7/15)
Length of Visible Light 15h 54m
Length of Day
14h 49m
Waxing Crescent, 45% of the Moon is Illuminated
Jul 15
Waxing Crescent
Jul 15
First Quarter
Jul 22
Full
Jul 29
Last Quarter
Aug 6
New

Hourly Weather History & Observations

Time (CDT) Temp. Heat Index Dew Point Humidity Pressure Visibility Wind Dir Wind Speed Gust Speed Precip Events Conditions
12:15 AM 69.3 °F - 60.8 °F 74% 30.17 in 10.0 mi ESE 5.8 mph - N/A   Clear
12:35 AM 69.3 °F - 60.8 °F 74% 30.17 in 10.0 mi ESE 4.6 mph - N/A   Clear
12:55 AM 69.1 °F - 60.8 °F 75% 30.17 in 10.0 mi ESE 3.5 mph - N/A   Clear
1:15 AM 69.6 °F - 60.8 °F 73% 30.17 in 10.0 mi ESE 4.6 mph - N/A   Clear
1:35 AM 70.0 °F - 60.8 °F 73% 30.17 in 10.0 mi ESE 4.6 mph - N/A   Clear
1:55 AM 69.3 °F - 60.4 °F 73% 30.18 in 10.0 mi Calm Calm - N/A   Clear
2:15 AM 69.3 °F - 60.8 °F 74% 30.18 in 10.0 mi Calm Calm - N/A   Clear
2:35 AM 67.1 °F - 61.0 °F 81% 30.18 in 10.0 mi Calm Calm - N/A   Clear
2:55 AM 69.8 °F - 60.8 °F 73% 30.17 in 10.0 mi Calm Calm - N/A   Clear
3:15 AM 68.5 °F - 60.8 °F 76% 30.18 in 10.0 mi Calm Calm - N/A   Clear
3:35 AM 68.2 °F - 61.7 °F 80% 30.17 in 10.0 mi Calm Calm - N/A   Clear
3:55 AM 67.3 °F - 61.3 °F 81% 30.17 in 10.0 mi ESE 3.5 mph - N/A   Clear
4:15 AM 66.4 °F - 61.7 °F 85% 30.17 in 10.0 mi ESE 4.6 mph - N/A   Clear
4:35 AM 66.4 °F - 61.7 °F 85% 30.17 in 10.0 mi SE 3.5 mph - N/A   Clear
4:55 AM 65.7 °F - 62.6 °F 90% 30.17 in 10.0 mi SE 3.5 mph - N/A   Clear
5:15 AM 65.5 °F - 62.6 °F 90% 30.17 in 10.0 mi Calm Calm - N/A   Clear
5:35 AM 64.6 °F - 61.9 °F 91% 30.18 in 10.0 mi Calm Calm - N/A   Clear
5:55 AM 64.2 °F - 61.9 °F 92% 30.18 in 10.0 mi Calm Calm - N/A   Clear
6:15 AM 63.5 °F - 61.5 °F 93% 30.18 in 7.0 mi Calm Calm - N/A   Clear
6:35 AM 63.0 °F - 60.8 °F 93% 30.19 in 7.0 mi Calm Calm - N/A   Clear
6:55 AM 64.4 °F - 61.9 °F 92% 30.19 in 7.0 mi NNE 3.5 mph - N/A   Clear
7:15 AM 67.5 °F - 62.8 °F 85% 30.20 in 10.0 mi ENE 3.5 mph - N/A   Clear
7:35 AM 68.0 °F - 63.7 °F 86% 30.20 in 10.0 mi Calm Calm - N/A   Clear
7:55 AM 69.8 °F - 64.6 °F 83% 30.20 in 10.0 mi Calm Calm - N/A   Clear
8:15 AM 71.6 °F - 65.7 °F 81% 30.20 in 10.0 mi Calm Calm - N/A   Clear
8:35 AM 72.9 °F - 65.7 °F 78% 30.21 in 10.0 mi East 3.5 mph - N/A   Clear
8:55 AM 74.5 °F - 66.2 °F 75% 30.21 in 10.0 mi Calm Calm - N/A   Clear
9:15 AM 75.7 °F - 66.9 °F 74% 30.21 in 10.0 mi East 4.6 mph - N/A   Clear
9:35 AM 77.2 °F - 67.3 °F 71% 30.21 in 10.0 mi East 3.5 mph - N/A   Clear
9:55 AM 78.6 °F - 67.8 °F 69% 30.21 in 10.0 mi SE 4.6 mph - N/A   Clear
10:15 AM 79.7 °F - 68.2 °F 68% 30.21 in 10.0 mi Calm Calm - N/A   Clear
10:35 AM 81.5 °F 84.6 °F 68.7 °F 65% 30.21 in 10.0 mi SE 6.9 mph - N/A   Clear
10:55 AM 80.6 °F 83.5 °F 68.7 °F 67% 30.21 in 10.0 mi South 4.6 mph - N/A   Mostly Cloudy
11:15 AM 83.3 °F 87.4 °F 69.8 °F 64% 30.21 in 10.0 mi SE 5.8 mph - N/A   Scattered Clouds
11:35 AM 84.0 °F 87.8 °F 69.4 °F 61% 30.21 in 10.0 mi SE 5.8 mph - N/A   Clear
11:55 AM 85.1 °F 89.1 °F 69.1 °F 59% 30.21 in 10.0 mi SE 6.9 mph - N/A   Scattered Clouds
12:15 PM 84.7 °F 88.8 °F 69.4 °F 60% 30.20 in 10.0 mi SE 5.8 mph - N/A   Scattered Clouds
12:35 PM 85.8 °F 89.7 °F 68.9 °F 57% 30.20 in 10.0 mi ESE 6.9 mph - N/A   Scattered Clouds
12:55 PM 84.2 °F 87.6 °F 68.5 °F 59% 30.20 in 10.0 mi ESE 5.8 mph - N/A   Scattered Clouds
1:15 PM 84.6 °F 87.6 °F 67.6 °F 57% 30.19 in 10.0 mi East 8.1 mph - N/A   Mostly Cloudy
1:35 PM 86.4 °F 89.7 °F 68.0 °F 54% 30.19 in - SE 8.1 mph - N/A   Mostly Cloudy
1:55 PM 84.7 °F 87.1 °F 66.6 °F 54% 30.18 in - North - - N/A   Mostly Cloudy
2:15 PM 86.5 °F 88.7 °F 65.8 °F 50% 30.18 in 10.0 mi North - - N/A   Mostly Cloudy
2:35 PM 87.3 °F 90.2 °F 66.9 °F 51% 30.17 in 10.0 mi SE 10.4 mph - N/A   Scattered Clouds
2:55 PM - - - N/A% 30.17 in - SE 8.1 mph - N/A   Scattered Clouds
3:15 PM 88.3 °F 91.2 °F 66.7 °F 49% 30.16 in 10.0 mi SE 8.1 mph - N/A Thunderstorm Thunderstorm
3:35 PM 89.4 °F 93.1 °F 67.8 °F 49% 30.16 in 10.0 mi ESE 8.1 mph - N/A   Mostly Cloudy
3:55 PM 86.0 °F 88.8 °F 66.9 °F 53% 30.16 in 10.0 mi ESE 5.8 mph - N/A   Mostly Cloudy
4:15 PM 87.6 °F 90.8 °F 67.5 °F 51% 30.16 in 10.0 mi East 6.9 mph - 0.03 in   Mostly Cloudy
4:35 PM 86.0 °F 89.1 °F 67.5 °F 54% 30.15 in 10.0 mi ESE 5.8 mph - 0.03 in   Mostly Cloudy
4:55 PM 87.4 °F 90.5 °F 67.5 °F 51% 30.15 in 10.0 mi ESE 9.2 mph - 0.03 in   Mostly Cloudy
5:15 PM 84.6 °F 87.1 °F 66.9 °F 55% 30.15 in 10.0 mi ESE 5.8 mph - N/A   Mostly Cloudy
5:35 PM 87.6 °F 90.4 °F 67.1 °F 50% 30.14 in 10.0 mi SE 8.1 mph - N/A   Scattered Clouds
5:55 PM 87.3 °F 90.2 °F 66.9 °F 51% 30.13 in 10.0 mi SE 8.1 mph - N/A   Scattered Clouds
6:15 PM 86.7 °F 89.0 °F 66.2 °F 50% 30.13 in 10.0 mi SE 9.2 mph - N/A   Clear
6:35 PM 86.5 °F 89.0 °F 66.6 °F 51% 30.13 in 10.0 mi SE 8.1 mph - N/A   Clear
6:55 PM 86.0 °F 87.9 °F 65.7 °F 50% 30.13 in 10.0 mi SE 9.2 mph - N/A   Clear
7:15 PM 85.5 °F 87.6 °F 66.2 °F 52% 30.14 in 10.0 mi SE 6.9 mph - N/A   Clear
7:35 PM 84.9 °F 87.6 °F 66.9 °F 55% 30.14 in 10.0 mi SSE 5.8 mph - N/A   Clear
7:55 PM 83.8 °F 86.5 °F 67.1 °F 57% 30.14 in 10.0 mi SE 3.5 mph - N/A   Clear
8:15 PM 82.8 °F 85.5 °F 67.8 °F 60% 30.14 in 10.0 mi SE 3.5 mph - N/A   Clear
8:35 PM 81.5 °F 84.1 °F 67.5 °F 62% 30.14 in 10.0 mi SE 3.5 mph - N/A   Clear
8:55 PM 79.9 °F - 67.5 °F 66% 30.14 in 10.0 mi Calm Calm - N/A   Clear
9:15 PM 78.8 °F - 67.5 °F 68% 30.15 in 10.0 mi SSE 3.5 mph - N/A   Clear
9:35 PM 77.9 °F - 67.5 °F 70% 30.16 in 10.0 mi SSE 3.5 mph - N/A   Clear
9:55 PM 78.4 °F - 67.5 °F 69% 30.16 in 10.0 mi SE 3.5 mph - N/A   Clear
10:15 PM 77.0 °F - 68.2 °F 74% 30.17 in 10.0 mi SE 4.6 mph - N/A   Clear
10:35 PM 76.6 °F - 68.4 °F 75% 30.17 in 10.0 mi SSE 4.6 mph - N/A   Clear
10:55 PM 76.1 °F - 68.5 °F 77% 30.18 in 10.0 mi SSE 4.6 mph - N/A   Clear
11:15 PM 75.7 °F - 68.9 °F 79% 30.18 in 10.0 mi SSE 4.6 mph - N/A   Clear
11:35 PM 75.6 °F - 68.5 °F 79% 30.18 in 10.0 mi SSE 4.6 mph - N/A   Clear
11:55 PM 75.0 °F - 68.5 °F 80% 30.19 in 10.0 mi SE 4.6 mph - N/A   Clear